Back to catalog

THORAD DELTA 1 DEB

AliveLEO
NORAD 8182·DEBRIS·🇺🇸 United States

Launched Nov 15, 1974 from Vandenberg Space Force Base

Loading…

Next Passes (next 24 hours)

TLE

FreshSource: Space-Track

Epoch: Sep 13, 2026, 03:08 UTC

1 08182U 74089AY  26256.13122911  .00001900  00000-0  79941-2 0  9990
2 08182 100.4017 324.9872 0133655 268.6566 119.9891 12.81952812377836

Track THORAD DELTA 1 DEB in real time with AllMySat

Download on the App Store